Location: Boiro
(42.6475°N, 8.8834°W)
Time: 17:13:16
(UTC+01:00)

Tiros 1 - Pass Details

Date: 11 December 2021
Orbit: 630 x 663 km, 48.4° (Epoch: 20 January)

Event Time Altitude Azimuth Distance (km) Brightness Sun altitude
Rises 22:45:23 0° 295° (WNW) 2,937 - -51.0°
Reaches altitude 10° 22:47:43 10° 293° (WNW) 2,031 - -51.4°
Maximum altitude 22:52:22 68° 212° (SSW) 693 - -52.2°
Drops below altitude 10° 22:57:03 10° 129° (SE) 2,045 - -53.0°
Sets 22:59:24 0° 127° (SE) 2,958 - -53.4°
